EHI
0 0 0 0 0 0 0 0 0 0 0 0 0 0 0 0 0 0 0 0 0 0 0 0 0 1 1 1 1 2 3 3 3 2 1 1 2 2 1 0 1 0 0
0 0 0 0 0 0 0 0 0 0 0 0 0 0 0 0 0 0 0 0 0 0 0 0 0 0 0 0 1 2 3 3 3 2 1 0 1 1 0 1 1 0 0
0 0 0 0 0 0 0 0 0 0 0 0 0 0 0 0 0 0 0 0 0 0 0 0 0 0 0 0 1 2 3 3 3 2 1 0 0 0 1 2 1 0 0
0 0 0 0 0 0 0 0 0 0 0 0 0 0 0 0 0 0 0 0 0 0 0 0 0 0 0 0 1 2 2 2 2 2 1 0 0 0 1 2 1 0 0
0 0 0 0 0 0 0 0 0 0 0 0 0 0 0 0 0 0 0 0 0 0 0 0 0 0 0 0 0 1 1 1 1 2 2 1 1 0 1 1 0 0 0
0 0 0 0 0 0 0 0 0 0 0 0 0 0 0 0 0 0 0 0 0 0 0 0 0 0 0 0 0 0 0 0 0 2 4 3 2 1 1 1 1 0 0
0 0 0 0 0 0 0 0 0 0 0 0 0 0 0 0 0 0 0 0 0 0 0 0 0 0 0 0 0 0 0 0 0 2 4 3 2 2 2 2 1 0 0
0 0 0 0 0 0 0 0 0 0 0 0 0 0 0 0 0 0 0 0 0 0 0 0 0 0 0 0 0 0 0 0 0 0 1 1 1 1 1 1 1 0 0
0 0 0 0 0 0 0 0 0 0 0 0 0 0 0 0 0 0 0 0 0 0 0 0 0 0 0 0 0 0 0 0 0 0 0 0 0 0 0 0 0 0 0
0 0 0 0 0 0 0 0 0 0 0 0 0 0 0 0 0 0 0 0 0 0 0 0 0 0 0 0 0 0 0 0 0 0 1 0 0 0 0 0 0 0 0
0 0 0 0 0 0 0 0 0 0 0 0 0 0 0 0 0 0 0 0 0 0 0 0 0 0 0 0 0 0 0 0 0 0 0 0 0 0 0 0 0 0 0
0 0 0 0 0 0 0 0 0 0 0 0 0 0 0 0 0 0 0 0 0 0 0 0 0 0 0 0 0 0 0 0 0 0 0 0 0 0 0 0 0 0 0
0 0 0 0 0 0 0 0 0 0 0 0 0 0 0 0 0 0 0 0 0 0 0 0 0 0 0 0 0 0 0 0 0 0 0 0 0 0 0 0 0 0 0
0 0 0 0 0 0 0 0 0 0 0 0 0 0 0 0 0 0 0 0 0 0 0 0 0 0 0 0 0 0 0 0 0 0 0 0 0 0 0 0 0 0 0
0 0 0 0 0 0 0 0 0 0 0 0 0 0 0 0 0 0 0 0 0 0 0 0 0 0 0 0 0 0 0 0 0 0 0 0 0 0 0 0 0 0 0
0 0 0 0 0 0 0 0 0 0 0 0 0 0 0 0 0 0 0 0 0 0 0 0 0 0 0 0 0 0 0 0 0 0 0 0 0 0 0 0 0 0 0
0 0 0 0 0 0 0 0 0 0 0 0 0 0 0 0 0 0 0 0 0 0 0 0 0 0 0 0 0 0 0 0 0 0 0 0 0 0 0 0 0 0 0
0 0 0 0 0 0 0 0 0 0 0 0 0 0 0 0 0 0 0 0 0 0 0 0 0 0 0 0 0 0 0 0 0 0 0 0 0 0 0 0 0 0 0
0 0 0 0 0 0 0 0 0 0 0 0 0 0 0 0 0 0 0 0 0 0 0 0 0 0 0 0 0 0 0 0 0 0 0 0 0 0 0 0 0 0 0
0 0 0 0 0 0 0 0 0 0 0 0 0 0 0 0 0 0 0 0 0 0 0 0 0 0 0 0 0 0 0 0 0 0 0 0 0 0 0 0 0 0 0
0 0 0 0 0 0 0 0 0 0 0 0 0 0 0 0 0 0 0 0 0 0 0 0 0 0 0 0 0 0 0 0 0 0 0 0 0 0 0 0 0 0 0
0 0 0 0 0 0 0 0 0 0 0 0 0 0 0 0 0 0 0 0 0 0 0 0 0 0 0 0 0 0 0 0 0 0 0 0 0 0 0 0 0 0 0
0 0 0 0 0 0 0 0 0 0 0 0 0 0 0 0 0 0 0 0 0 0 0 0 0 0 0 0 0 0 0 0 0 0 0 0 0 0 0 0 0 0 0
0 0 0 0 0 0 0 0 0 0 0 0 0 0 0 0 0 0 0 0 0 0 0 0 0 0 0 0 0 0 0 0 0 0 0 0 0 0 0 0 0 0 0
0 0 0 0 0 0 0 0 0 0 0 0 0 0 0 0 0 0 0 0 0 0 0 0 0 0 0 0 0 0 0 0 0 0 0 0 0 0 0 0 0 0 0
0 0 0 0 0 0 0 0 0 0 0 0 0 0 0 0 0 0 0 0 0 0 0 0 0 0 0 0 0 0 0 0 0 0 0 0 0 0 0 0 0 0 0
Wind_Speed
2 2 1 2 2 2 2 3 3 4 4 4 4 5 4 4 4 3 3 8 9 9 9 9 9 8 8 8 8 8 8 8 8 8 8 9 8 8 8 8 8 8 8
2 2 2 2 2 2 2 3 3 3 3 3 4 4 4 4 4 4 3 5 8 9 9 8 8 7 7 8 8 7 7 7 8 8 8 8 8 8 8 8 8 8 8
3 3 3 2 2 2 3 3 4 3 4 4 4 4 4 3 4 4 3 3 3 7 8 8 8 7 8 8 8 7 8 8 8 7 7 8 8 8 8 8 9 8 8
4 3 3 2 2 3 3 3 3 4 4 3 3 3 3 3 3 3 3 3 3 3 5 8 8 8 9 8 7 8 8 8 8 7 7 7 7 8 8 8 9 9 9
4 4 3 2 3 3 3 3 3 3 3 3 3 3 3 2 2 3 3 3 3 3 3 4 7 7 8 8 8 8 8 8 7 7 7 7 7 7 8 8 8 8 8
4 4 3 3 3 3 3 3 3 3 3 3 4 4 3 2 2 3 2 2 2 3 3 3 3 4 7 7 7 7 7 7 7 7 7 7 7 7 7 7 7 7 7
3 4 3 3 3 3 3 3 3 4 2 2 4 3 3 3 3 2 2 2 2 2 2 3 2 2 3 6 6 7 7 7 6 6 6 6 7 7 6 7 7 7 7
3 4 4 3 3 3 3 3 3 2 1 1 3 3 2 3 3 2 2 2 2 2 2 2 3 2 2 2 4 6 5 5 5 5 5 6 6 7 6 6 6 6 6
3 3 4 4 3 3 3 3 3 3 2 0 1 3 3 2 1 2 2 2 1 1 1 1 2 2 2 2 2 4 4 4 4 4 5 5 5 5 5 5 5 5 5
2 3 4 4 3 3 3 3 2 2 3 1 0 1 2 4 3 0 2 2 1 1 1 1 2 2 2 2 2 4 4 3 3 4 4 4 4 4 4 3 4 4 4
1 2 3 3 3 3 3 3 2 2 2 2 1 1 1 1 2 3 1 1 2 1 1 1 1 1 1 1 1 2 3 3 3 3 3 3 3 3 3 3 3 4 4
1 1 2 3 3 3 3 3 3 3 2 2 1 1 2 2 2 2 2 1 0 1 1 0 1 1 1 0 1 3 3 3 3 3 3 3 2 2 2 2 3 4 4
0 1 2 2 2 2 2 2 2 2 2 2 2 1 1 1 2 3 3 2 1 1 1 1 1 1 1 1 1 3 3 3 2 2 2 2 2 1 1 1 2 4 4
2 1 2 2 2 2 2 2 2 2 2 2 2 2 1 1 2 3 3 4 2 1 1 1 1 0 0 1 1 2 1 3 2 2 2 2 2 2 2 2 2 3 3
1 2 2 2 2 2 2 3 2 2 2 2 2 2 1 1 1 2 2 4 4 2 1 2 1 1 0 1 1 1 1 2 2 2 2 2 2 2 3 3 3 4 3
1 2 2 2 2 2 2 2 2 1 2 2 2 2 2 1 1 2 2 2 2 3 2 2 2 1 1 1 2 1 1 2 2 2 2 2 2 3 3 3 3 4 3
2 2 3 2 2 2 2 2 2 2 2 1 1 2 2 2 2 1 2 2 2 3 2 1 0 0 1 1 1 0 0 0 0 2 2 2 3 3 2 3 3 3 3
2 2 2 2 2 2 2 2 2 2 2 2 1 2 1 2 2 1 2 2 2 2 3 2 0 0 1 1 1 0 0 0 0 1 2 2 3 3 3 3 3 2 2
2 2 2 2 2 2 2 2 2 2 2 2 2 2 2 3 2 1 2 2 1 2 2 3 1 0 0 0 1 0 0 1 0 1 1 2 2 2 2 2 2 2 2
3 2 2 2 2 2 2 2 2 2 1 1 1 2 2 3 3 3 2 2 2 2 2 2 1 0 0 0 1 0 1 1 1 0 1 1 1 2 2 2 2 2 2
2 2 2 2 1 2 2 2 2 2 2 1 1 1 1 3 4 4 3 3 4 3 2 2 1 1 0 1 1 1 1 1 1 0 0 1 0 0 1 1 2 2 3
1 2 2 2 2 1 2 3 3 2 2 2 1 1 1 1 2 4 4 5 6 5 4 3 2 2 3 2 2 2 1 1 1 1 1 1 1 1 1 1 2 2 3
2 2 2 2 2 2 2 3 3 3 2 2 2 1 1 1 2 2 2 3 3 5 7 5 4 4 4 4 3 2 2 2 3 2 1 1 0 1 2 2 3 3 4
3 2 3 3 2 2 2 3 3 2 2 2 2 2 1 1 2 3 3 2 2 2 4 4 4 4 4 4 4 4 3 2 1 1 1 1 1 1 1 1 3 4 4
2 2 2 3 3 3 3 4 3 2 1 2 2 2 2 2 2 4 4 3 2 2 2 3 3 3 2 2 3 3 2 2 1 2 1 2 1 1 1 2 3 3 4
3 3 2 3 3 3 4 4 4 2 2 1 1 1 2 2 3 4 4 4 3 3 2 1 1 0 1 1 3 3 4 3 2 2 2 2 1 1 1 2 1 1 1
Wind_Direction
110 100 92 84 79 78 82 83 84 81 80 79 86 92 86 80 74 59 60 77 84 88 87 87 88 89 92 93 94 92 91 90 88 89 89 88 87 87 87 89 91 90 88
118 107 94 87 86 94 95 95 91 84 76 81 83 88 87 82 75 71 56 63 73 80 82 81 78 80 93 96 93 93 93 90 89 89 92 92 89 89 90 88 86 87 88
117 110 104 97 93 97 92 84 78 78 80 79 78 84 88 88 86 78 68 52 52 66 74 74 71 77 91 94 92 93 94 94 94 93 96 97 94 93 94 94 91 89 89
116 107 104 101 99 93 91 90 83 81 73 73 74 70 75 79 87 88 75 61 48 47 59 69 70 78 89 90 91 93 95 95 95 96 100 103 99 95 95 96 95 92 91
116 110 110 107 100 91 90 99 82 91 87 79 79 69 63 69 75 93 81 68 59 58 49 61 65 72 80 84 89 93 92 92 93 96 101 103 103 101 98 97 96 95 95
113 110 113 108 100 96 87 91 91 79 93 96 87 70 55 53 62 75 89 77 63 67 60 59 53 54 67 76 83 90 91 92 93 96 100 102 104 104 104 99 100 98 97
122 116 120 112 109 114 120 116 107 91 82 96 86 58 31 36 55 56 61 73 71 67 68 68 60 48 48 62 74 86 89 91 92 94 97 103 102 102 104 103 102 101 100
135 132 132 132 128 119 114 117 116 109 120 118 114 99 45 12 11 32 46 70 69 74 82 86 68 61 53 46 57 74 79 92 95 97 99 102 105 102 102 106 109 105 108
141 135 141 141 143 137 143 146 142 137 152 220 125 134 139 177 316 353 15 40 49 66 67 80 81 65 68 56 43 52 67 73 91 101 103 107 109 110 108 106 106 108 108
140 137 140 143 146 146 155 168 155 149 144 153 116 103 147 152 148 100 349 1 20 52 57 92 84 73 78 68 65 68 68 66 75 92 101 102 108 118 117 113 112 116 115
127 137 141 140 144 153 164 162 150 150 150 158 162 135 101 95 120 142 171 330 0 352 28 101 112 109 105 103 98 90 81 72 63 64 81 92 102 121 130 131 123 132 131
68 115 136 137 143 149 166 171 167 162 163 156 159 161 157 149 157 144 159 182 264 314 348 23 146 166 161 153 151 125 107 91 80 60 49 60 82 107 117 129 127 132 130
118 216 139 143 148 160 166 157 158 177 173 160 167 176 176 169 153 146 141 157 162 309 345 337 272 205 174 163 178 143 123 114 103 83 60 48 57 85 98 104 118 130 128
192 181 145 145 155 158 154 144 145 175 167 168 169 161 155 166 149 151 152 147 131 4 343 285 311 232 168 156 168 160 135 137 128 112 100 88 82 82 84 86 102 122 118
174 156 145 142 148 146 144 140 141 159 150 154 155 148 140 145 139 146 143 148 147 154 248 266 267 266 195 149 174 155 174 150 147 141 122 114 112 105 98 88 84 98 105
153 137 130 132 127 127 129 129 132 145 132 137 144 131 122 134 123 125 137 133 133 146 175 236 230 235 194 151 147 155 174 158 165 165 154 144 135 128 116 107 99 97 102
136 138 144 137 133 125 116 119 125 125 129 131 135 139 150 135 126 131 124 118 124 130 147 253 313 20 114 139 97 78 67 256 197 181 179 165 151 146 140 128 116 104 104
143 141 145 141 144 137 127 129 140 127 126 136 150 142 165 155 138 142 135 137 141 145 146 159 325 42 166 178 145 136 210 178 218 191 192 180 171 159 152 143 129 121 118
146 135 131 147 160 155 151 156 152 153 151 154 158 160 175 153 160 158 156 156 148 136 135 146 171 162 79 105 80 3 2 349 265 193 178 196 187 171 158 152 141 140 141
152 156 163 164 171 166 156 158 158 156 156 158 163 165 168 166 177 174 164 164 148 130 127 136 149 159 154 154 107 98 342 330 288 347 46 96 149 167 169 170 162 161 165
159 164 150 150 158 161 163 161 171 172 168 162 170 199 182 168 170 173 165 167 153 141 139 144 161 146 193 149 191 195 203 297 311 293 48 340 27 358 281 239 210 201 193
170 155 158 167 176 185 154 165 162 178 183 176 185 231 225 188 188 175 166 161 162 163 167 163 180 195 222 212 197 183 170 121 294 282 142 266 153 226 256 236 220 203 198
171 172 179 174 192 210 166 165 169 169 179 188 192 203 228 208 192 188 177 171 177 178 174 173 181 207 209 205 181 181 190 185 220 234 142 256 246 235 248 240 222 213 203
177 190 200 192 195 218 185 170 165 163 170 196 202 196 198 247 201 178 167 167 199 212 203 188 192 208 210 202 186 184 184 176 273 312 145 203 256 251 266 258 250 216 203
191 203 202 193 195 228 209 182 161 159 167 214 222 208 192 208 206 169 157 170 203 253 231 186 184 187 180 178 162 132 134 131 228 267 196 174 228 258 286 275 267 236 214
199 202 214 212 206 218 213 189 172 164 176 222 255 246 219 206 192 168 170 176 196 228 208 156 138 290 202 184 165 167 172 167 179 236 225 172 199 152 288 292 296 286 242